This is the latest recevied weather packets stored in our database for station/object KE6AFE. If no packets are shown the sender has not sent any weather packets the latest 10 day(s).
| Time | Temp. | Humidity | Pressure | Rain* | Wind** | Luminosity | Snow |
|---|---|---|---|---|---|---|---|
| 1777860228 | 16.11° C | 58% | 1014.6 hPa | 0 mm | - | - | - |
| 1777859618 | 16.67° C | 57% | 1014.7 hPa | 0 mm | - | - | - |
| 1777859008 | 16.67° C | 57% | 1014.7 hPa | 0 mm | - | - | - |
| 1777858398 | 17.22° C | 55% | 1014.7 hPa | 0 mm | - | - | - |
| 1777857788 | 17.22° C | 53% | 1014.6 hPa | 0 mm | - | - | - |
| 1777857178 | 17.78° C | 54% | 1014.7 hPa | 0 mm | - | - | - |
| 1777856568 | 17.78° C | 53% | 1014.6 hPa | 0 mm | - | - | - |
| 1777855958 | 18.33° C | 53% | 1014.6 hPa | 0 mm | - | - | - |
| 1777855348 | 18.33° C | 51% | 1014.6 hPa | 0 mm | - | - | - |
| 1777854738 | 18.89° C | 50% | 1014.5 hPa | 0 mm | - | - | - |
| 1777854128 | 18.89° C | 50% | 1014.5 hPa | 0 mm | - | - | - |
| 1777853518 | 18.89° C | 50% | 1014.5 hPa | 0 mm | - | - | - |
| 1777852908 | 19.44° C | 49% | 1014.4 hPa | 0 mm | - | - | - |
| 1777852298 | 20° C | 48% | 1014.4 hPa | 0 mm | - | - | - |
| 1777851688 | 20° C | 48% | 1014.4 hPa | 0 mm | - | - | - |
| 1777851078 | 20° C | 47% | 1014.3 hPa | 0 mm | - | - | - |
| 1777850468 | 20° C | 48% | 1014.3 hPa | 0 mm | - | - | - |
| 1777849858 | 20° C | 49% | 1014.3 hPa | 0 mm | - | - | - |
| 1777849248 | 20° C | 49% | 1014.4 hPa | 0 mm | - | - | - |
| 1777848638 | 20° C | 49% | 1014.5 hPa | 0 mm | - | - | - |
| 1777848028 | 20° C | 47% | 1014.6 hPa | 0 mm | - | - | - |
| 1777847418 | 20.56° C | 47% | 1014.6 hPa | 0 mm | - | - | - |
| 1777846808 | 20.56° C | 44% | 1014.6 hPa | 0 mm | - | - | - |
| 1777846198 | 20.56° C | 46% | 1014.7 hPa | 0 mm | - | - | - |
| 1777845588 | 20° C | 48% | 1014.6 hPa | 0 mm | - | - | - |
* Rain latest hour (hover to see other rain measurements)
** Current wind speed in m/s (hover to see current wind gust speed)